TimeEST,TemperatureF,Dew PointF,Humidity,Sea Level PressureIn,VisibilityMPH,Wind Direction,Wind SpeedMPH,Gust SpeedMPH,PrecipitationIn,Events,Conditions,WindDirDegrees,DateUTC
12:53 AM,30.0,21.9,72,30.34,7.0,West,10.4,-,N/A,,Overcast,270,2013-01-07 05:53:00
1:53 AM,30.0,23.0,75,30.36,6.0,West,4.6,-,N/A,,Haze,270,2013-01-07 06:53:00
2:53 AM,28.9,23.0,78,30.40,5.0,WSW,4.6,-,N/A,,Haze,240,2013-01-07 07:53:00
3:53 AM,28.9,23.0,78,30.41,5.0,West,4.6,-,N/A,,Haze,270,2013-01-07 08:53:00
4:08 AM,28.4,23.0,80,30.39,5.0,West,3.5,-,N/A,,Haze,280,2013-01-07 09:08:00
4:17 AM,28.4,23.0,80,30.39,5.0,Calm,Calm,-,N/A,,Haze,0,2013-01-07 09:17:00
4:53 AM,28.9,23.0,78,30.41,5.0,Calm,Calm,-,N/A,,Haze,0,2013-01-07 09:53:00
5:00 AM,28.4,23.0,80,30.39,5.0,Calm,Calm,-,N/A,,Haze,0,2013-01-07 10:00:00
5:53 AM,28.9,23.0,78,30.44,4.0,West,4.6,-,N/A,,Haze,260,2013-01-07 10:53:00
6:39 AM,28.4,23.0,80,30.43,4.0,Calm,Calm,-,N/A,,Haze,0,2013-01-07 11:39:00
6:53 AM,28.9,24.1,82,30.46,4.0,Calm,Calm,-,N/A,,Haze,0,2013-01-07 11:53:00
7:01 AM,28.4,24.8,86,30.44,4.0,Calm,Calm,-,N/A,,Haze,0,2013-01-07 12:01:00
7:53 AM,30.0,24.1,79,30.49,4.0,Calm,Calm,-,N/A,,Haze,0,2013-01-07 12:53:00
8:53 AM,30.0,25.0,82,30.52,3.0,Calm,Calm,-,N/A,,Haze,0,2013-01-07 13:53:00
9:53 AM,30.0,25.0,82,30.54,3.0,SSW,5.8,-,N/A,,Haze,210,2013-01-07 14:53:00
10:53 AM,30.9,25.0,79,30.55,3.0,South,5.8,-,N/A,,Haze,180,2013-01-07 15:53:00
11:53 AM,32.0,25.0,75,30.51,4.0,Calm,Calm,-,N/A,,Haze,0,2013-01-07 16:53:00
12:53 PM,34.0,25.0,70,30.48,5.0,South,3.5,-,N/A,,Haze,170,2013-01-07 17:53:00
1:09 PM,35.6,23.0,60,30.44,7.0,Variable,4.6,-,N/A,,Unknown,0,2013-01-07 18:09:00
1:53 PM,34.0,23.0,64,30.46,7.0,South,3.5,-,N/A,,Overcast,180,2013-01-07 18:53:00
2:00 PM,33.8,23.0,65,30.43,6.0,South,4.6,-,N/A,,Haze,180,2013-01-07 19:00:00
2:53 PM,35.1,24.1,64,30.45,6.0,SSW,5.8,-,N/A,,Haze,210,2013-01-07 19:53:00
3:51 PM,33.8,23.0,65,30.42,6.0,SE,4.6,-,N/A,,Haze,140,2013-01-07 20:51:00
3:53 PM,34.0,23.0,64,30.45,6.0,SE,3.5,-,N/A,,Haze,130,2013-01-07 20:53:00
4:53 PM,34.0,23.0,64,30.44,7.0,Calm,Calm,-,N/A,,Clear,0,2013-01-07 21:53:00
5:53 PM,32.0,23.0,69,30.42,7.0,Calm,Calm,-,N/A,,Clear,0,2013-01-07 22:53:00
6:53 PM,28.9,21.9,75,30.42,8.0,Calm,Calm,-,N/A,,Clear,0,2013-01-07 23:53:00
7:53 PM,28.0,21.9,78,30.41,8.0,Calm,Calm,-,N/A,,Clear,0,2013-01-08 00:53:00
8:53 PM,26.1,21.9,84,30.39,8.0,Calm,Calm,-,N/A,,Clear,0,2013-01-08 01:53:00
9:53 PM,25.0,21.0,85,30.37,10.0,ESE,4.6,-,N/A,,Clear,120,2013-01-08 02:53:00
10:53 PM,26.1,21.9,84,30.34,10.0,Calm,Calm,-,N/A,,Clear,0,2013-01-08 03:53:00
11:53 PM,24.1,19.9,84,30.32,4.0,Calm,Calm,-,N/A,,Clear,0,2013-01-08 04:53:00